This is the latest recevied weather packets stored in our database for station/object DG3NAD-21. If no packets are shown the sender has not sent any weather packets the latest 10 day(s).
| Time | Temp. | Humidity | Pressure | Rain* | Wind** | Luminosity | Snow |
|---|---|---|---|---|---|---|---|
| 1788618534 | 26.11° C | 34% | 1024.6 hPa | - | - | - | - |
| 1788617634 | 25.56° C | 34% | 1024.5 hPa | - | - | - | - |
| 1788616734 | 25.56° C | 34% | 1024.5 hPa | - | - | - | - |
| 1788615834 | 26.11° C | 34% | 1024.5 hPa | - | - | - | - |
| 1788614934 | 26.11° C | 35% | 1024.3 hPa | - | - | - | - |
| 1788614033 | 26.11° C | 36% | 1024.3 hPa | - | - | - | - |
| 1788613133 | 25.56° C | 36% | 1024.3 hPa | - | - | - | - |
| 1788612233 | 25.56° C | 36% | 1024.3 hPa | - | - | - | - |
| 1788611333 | 25.56° C | 38% | 1024.2 hPa | - | - | - | - |
| 1788610433 | 25° C | 38% | 1024.2 hPa | - | - | - | - |
| 1788609533 | 25° C | 38% | 1024.1 hPa | - | - | - | - |
| 1788608633 | 25° C | 39% | 1024.2 hPa | - | - | - | - |
| 1788607733 | 25° C | 39% | 1024.2 hPa | - | - | - | - |
| 1788606833 | 25° C | 40% | 1024.3 hPa | - | - | - | - |
| 1788605932 | 24.44° C | 42% | 1024.2 hPa | - | - | - | - |
| 1788605032 | 24.44° C | 43% | 1024.2 hPa | - | - | - | - |
| 1788604132 | 23.89° C | 44% | 1024.3 hPa | - | - | - | - |
| 1788603232 | 23.89° C | 45% | 1024.4 hPa | - | - | - | - |
| 1788602331 | 23.33° C | 47% | 1024.2 hPa | - | - | - | - |
| 1788601431 | 23.33° C | 47% | 1024.3 hPa | - | - | - | - |
| 1788600531 | 23.89° C | 47% | 1024.4 hPa | - | - | - | - |
| 1788599631 | 23.33° C | 47% | 1024.2 hPa | - | - | - | - |
| 1788598731 | 22.78° C | 48% | 1024.1 hPa | - | - | - | - |
| 1788597831 | 22.78° C | 48% | 1024.1 hPa | - | - | - | - |
| 1788596930 | 22.78° C | 47% | 1024 hPa | - | - | - | - |
* Rain since midnight (hover to see other rain measurements)
** Current wind speed in m/s (hover to see current wind gust speed)